Torna al catalogo

STARLINK-35719

AttivoComunicazioniVLEO
NORAD 67183·PAYLOAD·🇺🇸 United States

Lanciato Dec 17, 2025 da Cape Canaveral Space Force Station

Loading…

Prossimi Passaggi (prossime 24 ore)

TLE

AggiornatoSource: CelesTrak SupGP

Epoca: Sep 14, 2026, 20:58 UTC

1 67183C 25303W   26257.87409722 -.00030120  00000+0 -10910-2 0  2576
2 67183  43.0021 322.0284 0001387 272.1691  13.3559 15.27592029    14

Traccia STARLINK-35719 in tempo reale con AllMySat

Download on the App Store